Overview Statistics Trail Chart Weather Telemetry Raw packets
 

This is the latest recevied weather packets stored in our database for station/object PU2XNA. If no packets are shown the sender has not sent any weather packets the latest 10 day(s).

<< 15 16 17 18 19 20 21 >>
Time Temp. Humidity Pressure Rain* Wind** Luminosity Snow
1788187503 30.56° C 38% 1009.7 hPa - - - -
1788186602 30° C 38% 1010 hPa - - - -
1788185703 30° C 38% 1010.2 hPa - - - -
1788184803 30.56° C 38% 1010.4 hPa - - - -
1788183903 30° C 38% 1010.5 hPa - - - -
1788183003 30.56° C 38% 1010.8 hPa - - - -
1788182103 31.11° C 38% 1011.1 hPa - - - -
1788181204 32.22° C 38% 1011.4 hPa - - - -
1788180302 33.33° C 38% 1011.6 hPa - - - -
1788179404 33.33° C 38% 1011.8 hPa - - - -
1788178503 32.22° C 38% 1012.1 hPa - - - -
1788177602 28.33° C 38% 1011.9 hPa - - - -
1788176704 28.89° C 38% 1011.7 hPa - - - -
1788175803 24.44° C 38% 1011.5 hPa - - - -
1788174903 25.56° C 38% 1011.7 hPa - - - -
1788174003 25° C 38% 1011.5 hPa - - - -
1788173103 21.67° C 38% 1011.5 hPa - - - -
1788172203 23.33° C 38% 1011.2 hPa - - - -
1788171303 22.22° C 38% 1011.1 hPa - - - -
1788170403 21.11° C 38% 1011.4 hPa - - - -
1788169505 21.11° C 38% 1011.2 hPa - - - -
1788168603 21.11° C 38% 1011.1 hPa - - - -
1788167704 21.11° C 38% 1010.8 hPa - - - -
1788166803 21.67° C 38% 1012.4 hPa - - - -
1788165903 22.22° C 38% 1010.8 hPa - - - -

* Rain since midnight (hover to see other rain measurements)
** Current wind speed in m/s (hover to see current wind gust speed)